Weather History for Erie, CO

Change the Weather History Date:

Monday, June 3, 2013

  Actual Average (KBJC) Record (KBJC)
Temperature  
Mean Temperature 67 °F -  
Max Temperature 90 °F 74 °F 91 °F (2006)
Min Temperature 44 °F 50 °F 42 °F (1998)
Cooling Degree Days 2    
Growing Degree Days 17 (Base 50)    
Moisture  
Dew Point 31 °F    
Average Humidity 31    
Maximum Humidity 76    
Minimum Humidity 8    
Precipitation  
Precipitation 0.00 in - - ()
Sea Level Pressure  
Sea Level Pressure 29.81 in    
Wind  
Wind Speed 6 mph (West)    
Max Wind Speed 24 mph    
Max Gust Speed 32 mph    
Visibility 10 miles    
Events      
Averages and records for this station are not official NWS values.
T = Trace of Precipitation, MM = Missing Value Source: NWS Daily Summary

Daily Weather History Graph

Daily Weather History Graph

Search for Another Location

Airport:

Trip Planner

Search our weather history database for the weather conditions in past years. The results will help you decide how hot, cold, wet, or windy it might be!

Date:

Astronomy

Jun. 03, 2013 Rise Set
Actual Time 5:32 AM MDT 8:24 PM MDT
Civil Twilight 5:00 AM MDT 8:56 PM MDT
Nautical Twilight 4:19 AM MDT 9:37 PM MDT
Astronomical Twilight 3:32 AM MDT 10:24 PM MDT
Moon 2:31 AM MDT (6/3) 3:57 PM MDT (6/3)
Length of Visible Light 15h 56m
Length of Day
14h 52m
Waning Crescent, 21% of the Moon is Illuminated
Jun 3
Waning Crescent
Jun 8
New
Jun 16
First Quarter
Jun 23
Full
Jun 29
Last Quarter

Hourly Weather History & Observations

Time (MDT) Temp. Windchill Dew Point Humidity Pressure Visibility Wind Dir Wind Speed Gust Speed Precip Events Conditions
12:15 AM 56.7 °F - 38.5 °F 51% 29.83 in 10.0 mi SSE 3.5 mph - N/A   Clear
12:35 AM 55.6 °F - 39.6 °F 55% 29.83 in 10.0 mi Calm Calm - N/A   Clear
12:55 AM 52.9 °F - 39.4 °F 60% 29.82 in 10.0 mi South 3.5 mph - N/A   Clear
1:15 AM 52.3 °F - 38.5 °F 59% 29.82 in 10.0 mi Calm Calm - N/A   Clear
1:35 AM 53.1 °F - 38.1 °F 57% 29.82 in 10.0 mi Calm Calm - N/A   Clear
1:55 AM 49.8 °F - 39.4 °F 67% 29.82 in 10.0 mi Calm Calm - N/A   Clear
2:15 AM 47.5 °F - 39.4 °F 73% 29.81 in 10.0 mi Calm Calm - N/A   Clear
2:35 AM 48.7 °F - 38.7 °F 68% 29.81 in 10.0 mi Calm Calm - N/A   Clear
2:55 AM 47.1 °F - 38.8 °F 73% 29.80 in 10.0 mi Calm Calm - N/A   Clear
3:15 AM 46.0 °F - 38.3 °F 74% 29.81 in 10.0 mi Calm Calm - N/A   Clear
3:35 AM 46.8 °F - 38.1 °F 72% 29.82 in 10.0 mi Calm Calm - N/A   Clear
3:55 AM 46.0 °F - 38.5 °F 75% 29.81 in 10.0 mi Calm Calm - N/A   Clear
4:15 AM 45.5 °F 44.2 °F 37.9 °F 75% 29.81 in 10.0 mi WNW 3.5 mph - N/A   Clear
4:35 AM 46.0 °F - 37.4 °F 72% 29.81 in 10.0 mi Calm Calm - N/A   Clear
4:55 AM 44.1 °F - 37.0 °F 76% 29.81 in 10.0 mi Calm Calm - N/A   Clear
5:15 AM 46.0 °F - 36.9 °F 70% 29.81 in 10.0 mi Calm Calm - N/A   Clear
5:35 AM 45.0 °F 43.5 °F 37.0 °F 74% 29.81 in 10.0 mi SSE 3.5 mph - N/A   Clear
5:55 AM 45.1 °F 42.0 °F 36.3 °F 71% 29.81 in 10.0 mi South 5.8 mph - N/A   Clear
6:15 AM 47.7 °F - 37.0 °F 67% 29.81 in 10.0 mi Calm Calm - N/A   Clear
6:35 AM 50.7 °F - 37.4 °F 60% 29.81 in 10.0 mi South 3.5 mph - N/A   Clear
6:55 AM 54.5 °F - 38.3 °F 54% 29.80 in 10.0 mi South 3.5 mph - N/A   Clear
7:15 AM 58.6 °F - 39.9 °F 50% 29.79 in 10.0 mi SSW 5.8 mph - N/A   Clear
7:35 AM 63.7 °F - 40.1 °F 42% 29.79 in 10.0 mi SW 6.9 mph - N/A   Clear
7:55 AM 68.5 °F - 37.8 °F 32% 29.79 in 10.0 mi SSW 6.9 mph - N/A   Clear
8:15 AM 73.4 °F - 32.4 °F 22% 29.80 in 10.0 mi SSW 8.1 mph - N/A   Clear
8:35 AM 76.1 °F - 33.4 °F 21% 29.81 in 10.0 mi NNE 4.6 mph - N/A   Clear
8:55 AM 77.9 °F - 31.1 °F 18% 29.81 in 10.0 mi WSW 8.1 mph - N/A   Clear
9:15 AM 78.3 °F - 32.7 °F 19% 29.80 in 10.0 mi SSW 8.1 mph - N/A   Clear
9:35 AM 81.9 °F - 27.9 °F 14% 29.81 in 10.0 mi West 11.5 mph 16.1 mph N/A   Clear
9:55 AM 81.5 °F - 28.9 °F 15% 29.80 in 10.0 mi WNW 9.2 mph - N/A   Clear
10:15 AM 83.1 °F - 27.0 °F 13% 29.80 in 10.0 mi WNW 13.8 mph 19.6 mph N/A   Clear
10:35 AM 84.7 °F - 23.9 °F 11% 29.80 in 10.0 mi West 9.2 mph 16.1 mph N/A   Clear
10:55 AM 85.8 °F - 24.3 °F 11% 29.80 in 10.0 mi NW 9.2 mph 17.3 mph N/A   Clear
11:15 AM 86.2 °F - 24.4 °F 11% 29.79 in 10.0 mi West 9.2 mph - N/A   Clear
11:35 AM 87.6 °F - 22.3 °F 9% 29.79 in 10.0 mi WSW 20.7 mph 29.9 mph N/A   Clear
11:55 AM 88.7 °F - 21.9 °F 9% 29.78 in 10.0 mi West 15.0 mph 26.5 mph N/A   Clear
12:15 PM 88.7 °F - 24.3 °F 10% 29.78 in 10.0 mi WSW 10.4 mph - N/A   Clear
12:35 PM 88.5 °F - 21.0 °F 8% 29.77 in 10.0 mi WNW 19.6 mph 28.8 mph N/A   Clear
12:55 PM 88.2 °F - 21.7 °F 9% 29.77 in 10.0 mi NW 18.4 mph 26.5 mph N/A   Clear
1:15 PM 86.2 °F - 23.0 °F 10% 29.77 in 10.0 mi WSW 15.0 mph 28.8 mph N/A   Clear
1:35 PM 89.2 °F - 23.9 °F 9% 29.77 in 10.0 mi West 15.0 mph 24.2 mph N/A   Clear
1:55 PM 90.3 °F - 24.8 °F 9% 29.76 in 10.0 mi WNW 13.8 mph 20.7 mph N/A   Clear
2:15 PM 90.0 °F - 22.8 °F 9% 29.76 in 10.0 mi West 23.0 mph 32.2 mph N/A   Clear
2:35 PM 90.3 °F - 21.2 °F 8% 29.77 in 10.0 mi West 17.3 mph 24.2 mph N/A   Clear
2:55 PM 90.1 °F - 22.8 °F 9% 29.76 in 10.0 mi NW 10.4 mph 25.3 mph N/A   Clear
3:15 PM 90.3 °F - 23.4 °F 9% 29.77 in 10.0 mi WNW 24.2 mph 29.9 mph N/A   Clear
3:35 PM 88.3 °F - 25.3 °F 10% 29.77 in 10.0 mi WNW 19.6 mph 32.2 mph N/A   Clear
3:55 PM 87.8 °F - 25.5 °F 10% 29.77 in 10.0 mi NNW 16.1 mph 28.8 mph N/A   Clear
4:15 PM 86.7 °F - 25.5 °F 11% 29.77 in 10.0 mi NNW 13.8 mph - N/A   Clear
4:35 PM 86.4 °F - 27.0 °F 12% 29.77 in 10.0 mi NNW 13.8 mph 20.7 mph N/A   Clear
4:55 PM 84.6 °F - 23.7 °F 11% 29.77 in 10.0 mi WNW 17.3 mph 26.5 mph N/A   Clear
5:15 PM 83.8 °F - 24.6 °F 11% 29.77 in 10.0 mi WNW 12.7 mph 25.3 mph N/A   Clear
5:35 PM 85.8 °F - 23.9 °F 10% 29.77 in 10.0 mi West 16.1 mph 23.0 mph N/A   Clear
5:55 PM 81.9 °F - 27.7 °F 14% 29.78 in 10.0 mi NNW 16.1 mph 24.2 mph N/A   Clear
6:15 PM 82.4 °F - 28.6 °F 14% 29.78 in 10.0 mi NNW 15.0 mph 21.9 mph N/A   Clear
6:35 PM 79.2 °F - 26.2 °F 14% 29.80 in 10.0 mi WNW 20.7 mph 32.2 mph N/A   Clear
6:55 PM 77.4 °F - 28.6 °F 17% 29.81 in 10.0 mi WNW 10.4 mph 16.1 mph N/A   Clear
7:15 PM 77.2 °F - 28.8 °F 17% 29.82 in 10.0 mi WNW 5.8 mph - N/A   Clear
7:35 PM 78.1 °F - 30.0 °F 17% 29.82 in 10.0 mi WNW 5.8 mph - N/A   Clear
7:55 PM 77.5 °F - 30.7 °F 18% 29.82 in 10.0 mi West 8.1 mph - N/A   Clear
8:15 PM 78.1 °F - 27.1 °F 15% 29.82 in 10.0 mi WSW 8.1 mph - N/A   Clear
8:35 PM 77.5 °F - 26.6 °F 15% 29.83 in 10.0 mi West 6.9 mph - N/A   Clear
8:55 PM 73.2 °F - 29.7 °F 20% 29.84 in 10.0 mi Calm Calm - N/A   Clear
9:15 PM 70.3 °F - 33.1 °F 25% 29.86 in 10.0 mi Calm Calm - N/A   Clear
9:35 PM 68.5 °F - 34.3 °F 28% 29.87 in 10.0 mi Calm Calm - N/A   Clear
9:55 PM 64.2 °F - 35.6 °F 35% 29.89 in 10.0 mi North 4.6 mph - N/A   Clear
10:15 PM 73.2 °F - 27.3 °F 18% 29.92 in 10.0 mi ENE 11.5 mph 21.9 mph N/A   Clear
10:35 PM 69.6 °F - 30.9 °F 24% 29.93 in 10.0 mi ENE 9.2 mph - N/A   Clear
10:55 PM 68.4 °F - 29.1 °F 23% 29.94 in 10.0 mi East 4.6 mph - N/A   Clear
11:15 PM 67.3 °F - 27.3 °F 22% 29.94 in 10.0 mi East 3.5 mph - N/A   Clear
11:35 PM 64.0 °F - 28.2 °F 26% 29.95 in 10.0 mi SSW 3.5 mph - N/A   Clear
11:55 PM 60.8 °F - 28.2 °F 29% 29.96 in 10.0 mi Calm Calm - N/A   Clear